Terminal Aerodrome Forecast
Issued by NWS

Home | Current Version | Previous Version | Text Only | Print | Product List | Glossary On
Versions: 1 2 3 4 5 6 7 8 9 10 11 12 13 14 15 16 17 18
000
FTAK31 PAJN 202331
TAFAJN
TAF
PAJN 202331Z 2100/2124 VRB05KT P6SM SKC
     FM210600 09008G15KT P6SM SKC WS020/06030KT=

USA.gov is the U.S. government's official web portal to all federal, state and local government web resources and services.